[[{"header":{"parameterUnit":"m.s-1","parameterCategory":1,"la1":30.2991,"la2":30.254,"lo1":-89.0895,"lo2":-89.0444,"dy":0.0017,"dx":0.0017,"nx":28,"ny":28,"refTime":"2024-06-08T03:00:00:Z","depth":0,"parameterNumber":2,"parameterNumberName":"U-component_of_WINDS"},"data":[0,0,0,0,0,0,0,0,0,0,0,0,0,0,0,0,0,0,0,0,0,0,0,0,0,0,0,0,0,0,0,0,0,0,0,0,0,0,0,0,0,0,0,0,0,0,0,0,0,0,0,0,0,0,0,0,0,0,2.3925,2.3926,0,2.3952,2.3952,2.3953,2.3908,2.3907,2.3905,2.3904,2.3931,2.3933,2.3935,0,0,0,0,0,0,0,0,0,0,0,0,0,2.3834,2.3836,2.3925,2.3926,2.3926,2.3952,2.3952,2.3953,2.3909,2.3907,2.3905,2.3903,2.393,2.3933,2.3936,0,0,0,0,0,0,0,0,0,0,0,0,0,2.3869,2.3837,2.3925,2.3907,2.3906,2.3952,2.3952,2.3953,2.3909,2.3907,2.3904,2.3902,2.393,2.3933,2.3936,2.4001,0,0,2.3946,2.3947,0,0,0,0,0,0,0,0,2.3867,2.3872,2.3909,2.3908,2.3907,2.3924,2.393,2.3969,2.3909,2.3908,2.3904,2.3901,2.3931,2.3934,2.3944,2.4003,2.4004,2.3946,2.3948,2.3949,2.395,0,0,0,0,0,0,0,2.3864,2.3871,2.3936,2.391,2.3908,2.3897,2.3899,2.3937,2.3932,2.3908,2.3905,2.3908,2.393,2.3941,2.3944,2.4004,2.3946,2.3949,2.3951,2.3952,2.4114,2.4116,0,0,0,0,0,0,2.3864,2.3869,2.3935,2.3937,2.3881,2.39,2.3903,2.3921,2.3931,2.393,2.391,2.3906,2.3936,2.394,2.3945,2.4019,2.3949,2.3952,2.3954,2.4112,2.4115,2.4117,0,0,0,0,0,0,2.3863,2.3871,2.3934,2.3902,2.3909,2.3904,2.3925,2.3923,2.3934,2.3933,2.3932,2.3923,2.3935,2.394,2.3987,2.402,2.3954,2.3957,2.4109,2.4113,2.4116,2.4171,0,0,0,0,0,0,2.386,2.387,2.3896,2.3903,2.3911,2.3976,2.3927,2.3925,2.394,2.3934,2.3944,2.3944,2.3933,2.3982,2.399,2.4023,2.3959,2.4106,2.4111,2.4115,2.4166,2.4176,2.4184,0,0,0,0,0,2.3857,2.3911,2.3897,2.3905,2.3943,2.3978,2.3983,2.397,2.3943,2.3967,2.3966,2.3944,2.4015,2.3987,2.3996,2.403,2.4104,2.4109,2.4115,2.4162,2.4174,2.4184,0,0,0,0,0,0,2.3908,2.3911,2.3896,2.3954,2.3966,2.3971,2.4002,2.3983,2.4003,2.3998,2.3981,2.3983,2.4032,2.4036,2.4005,2.4092,2.4055,2.4062,2.4088,2.4099,2.4108,2.4105,2.3962,0,0,0,0,0,2.3926,2.3955,2.3956,2.4007,2.4014,2.4007,2.4022,2.401,2.4022,2.4027,2.403,2.4042,2.4066,2.4083,2.4107,2.4166,2.4167,2.4194,2.4203,2.4211,2.4217,2.4246,2.4257,2.4135,2.4135,2.4135,0,0,2.3964,2.3969,2.3988,2.4017,2.4025,2.4054,2.4011,2.4045,2.4066,2.4032,2.4075,2.4078,2.409,2.4142,2.4166,2.4147,2.425,2.4218,2.4224,2.4225,2.4252,2.4264,2.4274,2.4139,2.4138,2.4137,0,0,2.4046,2.4054,2.4096,2.4104,2.4116,2.4111,2.4121,2.4128,2.4128,2.4171,2.4145,2.417,2.4214,2.4223,2.4233,2.4317,2.4295,2.4325,2.4372,2.44,2.441,2.4418,2.4445,2.4456,2.4331,2.4331,2.4331,0,2.4091,2.4134,2.412,2.4154,2.4166,2.4136,2.4177,2.4186,2.4206,2.4214,2.4193,2.4246,2.4253,2.4305,2.4325,2.4336,2.4345,2.4323,2.441,2.4418,2.4425,2.4451,2.4462,2.4335,2.4334,2.4334,2.4333,0,2.4187,2.4218,2.425,2.4268,2.4284,2.4322,2.4311,2.433,2.4317,2.4313,2.4356,2.4363,2.4385,2.4397,2.4386,2.4448,2.4435,2.4413,2.4374,2.4441,2.4464,2.4474,2.4339,2.4338,2.4337,2.4336,0,0,2.4303,2.4311,2.4323,2.4329,2.434,2.4362,2.4398,2.4419,2.4434,2.4448,2.4476,2.4513,2.4491,2.4503,2.4492,2.4517,2.4579,2.449,2.449,2.4505,2.4645,2.466,2.4672,2.4566,2.4568,2.4569,2.4643,0,2.4383,2.4444,2.443,2.449,2.4516,2.4487,2.4517,2.4527,2.4524,2.4545,2.4543,2.4568,2.4539,2.4545,2.4569,2.4567,2.4607,2.4561,2.459,2.4591,2.4586,2.4685,2.4702,2.4772,2.4653,2.4654,2.4655,0,2.4485,2.4501,2.4562,2.4565,2.4576,2.4604,2.4621,2.4642,2.4651,2.4647,2.466,2.4643,2.4677,2.4639,2.4684,2.4654,2.4665,2.4665,2.4667,2.4668,2.4626,2.4686,2.4794,2.4803,2.467,2.4669,2.4668,0,2.4559,2.4597,2.4637,2.4644,2.465,2.467,2.4673,2.468,2.4693,2.4708,2.4715,2.4735,2.4745,2.476,2.4748,2.4723,2.4794,2.4757,2.4791,2.4791,2.4806,2.4804,2.4914,2.4817,2.4817,2.4816,2.4816,0,2.4648,2.4687,2.4671,2.4696,2.4737,2.4721,2.4762,2.4762,2.4768,2.4791,2.4769,2.4791,2.4775,2.4796,2.4788,2.4825,2.483,2.4827,2.4824,2.4828,2.4828,2.4833,2.4827,2.4819,2.4819,2.4818,2.4818,0,2.4738,2.473,2.4771,2.4773,2.4774,2.4804,2.4805,2.4827,2.4822,2.4852,2.4859,2.4851,2.4874,2.4865,2.489,2.4884,2.4931,2.4922,2.4927,2.4924,2.4957,2.4954,2.5073,2.5086,2.4983,2.4984,2.4985,0,2.4795,2.4823,2.4827,2.484,2.4845,2.4868,2.488,2.4865,2.4879,2.489,2.4911,2.4932,2.4948,2.4986,2.4983,2.5001,2.4992,2.5032,2.4994,2.4996,2.4989,2.4986,2.4988,2.5039,2.504,2.5041,2.5042,0,2.4895,2.4888,2.4907,2.4923,2.4938,2.4951,2.4962,2.4974,2.496,2.4976,2.4999,2.5011,2.5036,2.5056,2.5072,2.5075,2.5055,2.5054,2.5062,2.5066,2.5066,2.5063,2.4945,2.5051,2.505,2.505,2.5049,2.5049,2.4968,2.499,2.4995,2.5016,2.5022,2.5032,2.5052,2.5049,2.5068,2.5086,2.5077,2.5103,2.5109,2.5128,2.5133,2.5153,2.5137,2.515,2.5152,2.5155,2.5158,2.5065,2.5156,2.5156,2.5156,2.5155,2.5155,0,2.5064,2.5065,2.5085,2.5099,2.5115,2.5095,2.5105,2.512,2.5143,2.515,2.5166,2.5191,2.521,2.5208,2.5225,2.5241,2.5233,2.5246,2.5244,2.5244,2.5173,2.5163,2.5253,2.5253,2.5253,2.5253,2.5253,2.5253,2.5116,2.5152,2.5146,2.5184,2.5185,2.521,2.5217,2.5225,2.5231,2.5259,2.5275,2.5273,2.5276,2.5293,2.5309,2.5308,2.5315,2.5331,2.5326,2.5259,2.525,2.524,2.523,2.5333,2.5333,2.5395,2.5396,2.5396]},{"header":{"parameterUnit":"m.s-1","parameterCategory":1,"la1":30.2991,"la2":30.254,"lo1":-89.0895,"lo2":-89.0444,"dy":0.0017,"dx":0.0017,"nx":28,"ny":28,"refTime":"2024-06-08T03:00:00:Z","depth":0,"parameterNumber":3,"parameterNumberName":"V-component_of_WINDS"},"data":[0,0,0,0,0,0,0,0,0,0,0,0,0,0,0,0,0,0,0,0,0,0,0,0,0,0,0,0,0,0,0,0,0,0,0,0,0,0,0,0,0,0,0,0,0,0,0,0,0,0,0,0,0,0,0,0,0,0,2.4514,2.4515,0,2.4602,2.4603,2.4604,2.4601,2.46,2.4599,2.4598,2.4686,2.4689,2.4692,0,0,0,0,0,0,0,0,0,0,0,0,0,2.4339,2.4342,2.4514,2.4515,2.4516,2.4602,2.4603,2.4604,2.4601,2.46,2.4599,2.4597,2.4685,2.4689,2.4693,0,0,0,0,0,0,0,0,0,0,0,0,0,2.442,2.4343,2.4513,2.4525,2.4527,2.4602,2.4603,2.4605,2.4602,2.46,2.4598,2.4596,2.4683,2.4688,2.4693,2.4762,0,0,2.4709,2.4712,0,0,0,0,0,0,0,0,2.4415,2.4426,2.4522,2.4524,2.4527,2.4589,2.4574,2.4657,2.4602,2.4573,2.4598,2.4596,2.4655,2.4662,2.4683,2.4766,2.477,2.471,2.4713,2.4715,2.4717,0,0,0,0,0,0,0,2.441,2.4422,2.4549,2.4523,2.4526,2.4524,2.4534,2.459,2.4623,2.4576,2.4576,2.4586,2.4656,2.4678,2.4685,2.4771,2.471,2.4714,2.4717,2.472,2.4914,2.4916,0,0,0,0,0,0,2.4402,2.4418,2.4546,2.4551,2.4465,2.4529,2.454,2.4571,2.4622,2.4629,2.4588,2.4586,2.467,2.4679,2.4688,2.4771,2.4715,2.472,2.4723,2.4912,2.4915,2.4917,0,0,0,0,0,0,2.4398,2.4413,2.4542,2.4485,2.4501,2.4534,2.4569,2.4573,2.4595,2.4632,2.4637,2.4604,2.4669,2.468,2.4744,2.4774,2.4722,2.4727,2.491,2.4913,2.4916,2.4939,0,0,0,0,0,0,2.4393,2.4412,2.4439,2.4485,2.4504,2.4598,2.4571,2.4576,2.4605,2.4603,2.4649,2.4655,2.4668,2.4736,2.4749,2.478,2.4731,2.4907,2.4911,2.4915,2.4935,2.4942,2.4948,0,0,0,0,0,2.4387,2.4442,2.4441,2.4456,2.4539,2.4599,2.461,2.4625,2.4607,2.4634,2.4657,2.4653,2.4769,2.4742,2.4757,2.4791,2.4905,2.491,2.4915,2.4933,2.4941,2.4948,0,0,0,0,0,0,2.4398,2.4448,2.4448,2.4519,2.4555,2.4599,2.4634,2.4633,2.4675,2.4671,2.4687,2.4698,2.4761,2.4782,2.4752,2.4859,2.4835,2.4842,2.4843,2.4852,2.4858,2.4851,2.4736,0,0,0,0,0,2.4409,2.4455,2.4496,2.4555,2.4573,2.46,2.4627,2.4636,2.4673,2.4688,2.4716,2.4752,2.4796,2.4825,2.4868,2.4938,2.4948,2.4968,2.4975,2.498,2.4986,2.5025,2.5034,2.4932,2.4932,2.4932,0,0,2.4432,2.4465,2.4493,2.4558,2.4587,2.4633,2.4613,2.4663,2.4697,2.4695,2.4757,2.4778,2.4819,2.4886,2.4917,2.4906,2.5017,2.4986,2.4989,2.4993,2.503,2.504,2.5049,2.4935,2.4935,2.4934,0,0,2.4497,2.4527,2.458,2.4609,2.4653,2.4671,2.4683,2.4727,2.4741,2.4803,2.4803,2.4843,2.4919,2.4948,2.4973,2.5048,2.5045,2.5061,2.5094,2.5132,2.514,2.5147,2.5173,2.5183,2.5068,2.5068,2.5068,0,2.452,2.4591,2.4606,2.4657,2.4685,2.4686,2.4738,2.4766,2.4821,2.484,2.4827,2.4922,2.495,2.5023,2.5041,2.5061,2.5076,2.5056,2.5137,2.5145,2.5152,2.5177,2.5187,2.5069,2.5069,2.5069,2.5069,0,2.4616,2.4665,2.4702,2.4756,2.4788,2.4839,2.4861,2.4892,2.4897,2.4916,2.4978,2.5011,2.5061,2.5079,2.5084,2.5153,2.5144,2.5134,2.511,2.5163,2.5187,2.5197,2.5072,2.5071,2.5071,2.507,0,0,2.4692,2.4754,2.4767,2.4791,2.484,2.4877,2.4927,2.4976,2.5002,2.504,2.5082,2.5146,2.5136,2.5164,2.5173,2.5206,2.5263,2.5191,2.5192,2.5203,2.534,2.5348,2.5359,2.5261,2.5263,2.5264,2.5336,0,2.4762,2.4853,2.4868,2.4947,2.4992,2.4993,2.5037,2.507,2.5089,2.5128,2.5148,2.5193,2.5178,2.5195,2.5227,2.5249,2.529,2.5244,2.53,2.5302,2.529,2.5372,2.538,2.5447,2.5346,2.5348,2.5349,0,2.4856,2.4897,2.4981,2.5023,2.5042,2.5082,2.5127,2.5166,2.5203,2.5214,2.5245,2.525,2.5301,2.5274,2.5344,2.5313,2.5336,2.535,2.5353,2.5359,2.5329,2.538,2.5468,2.5478,2.5364,2.5363,2.5362,0,2.4903,2.4979,2.5039,2.506,2.511,2.5137,2.5159,2.5195,2.5224,2.5263,2.5281,2.5326,2.535,2.5384,2.54,2.5379,2.5469,2.5444,2.5479,2.5479,2.5499,2.5497,2.5592,2.5514,2.5513,2.5513,2.5513,0,2.498,2.5031,2.5061,2.5098,2.5154,2.517,2.5226,2.5247,2.5279,2.5319,2.5322,2.536,2.5379,2.5419,2.5431,2.5488,2.5498,2.5508,2.5511,2.5508,2.5507,2.5524,2.552,2.5516,2.5515,2.5515,2.5514,0,2.5042,2.5064,2.5129,2.5171,2.5183,2.5223,2.5259,2.5294,2.5312,2.5362,2.5375,2.5403,2.545,2.5469,2.5527,2.5535,2.56,2.5599,2.5588,2.5589,2.5623,2.562,2.5733,2.5748,2.5659,2.566,2.566,0,2.509,2.513,2.5176,2.5203,2.5227,2.5271,2.53,2.5316,2.5346,2.5392,2.5421,2.5468,2.5507,2.5582,2.5607,2.5651,2.5651,2.5688,2.5658,2.5654,2.5652,2.5649,2.5653,2.5693,2.5694,2.5695,2.5696,0,2.5173,2.5181,2.5223,2.5269,2.5304,2.534,2.5376,2.5398,2.542,2.5453,2.5501,2.5531,2.559,2.5637,2.5682,2.5704,2.5703,2.5705,2.5715,2.5713,2.5705,2.571,2.5603,2.5702,2.5701,2.5701,2.5701,2.57,2.5229,2.5264,2.5302,2.5349,2.5377,2.541,2.5445,2.5468,2.5509,2.5559,2.5566,2.5617,2.5653,2.5714,2.5737,2.5778,2.5768,2.5783,2.5787,2.5791,2.5793,2.5698,2.5786,2.5786,2.5785,2.5785,2.5785,0,2.5312,2.5336,2.5379,2.5429,2.5465,2.5462,2.5501,2.5531,2.5577,2.5611,2.5649,2.5704,2.575,2.5778,2.5823,2.585,2.5851,2.5861,2.5859,2.5864,2.5799,2.5786,2.586,2.586,2.586,2.5859,2.5859,2.5859,2.5359,2.5418,2.5431,2.5504,2.5528,2.5579,2.5602,2.5632,2.5659,2.5721,2.5759,2.5777,2.5808,2.5856,2.5897,2.5904,2.592,2.5931,2.5938,2.5877,2.5869,2.5862,2.5849,2.5935,2.5935,2.6,2.6,2.6001]}]]